[[{"header":{"parameterUnit":"m.s-1","parameterCategory":1,"la1":30.2991,"la2":30.254,"lo1":-89.0895,"lo2":-89.0444,"dy":0.0017,"dx":0.0017,"nx":28,"ny":28,"refTime":"2024-10-21T21:00:00:Z","depth":0,"parameterNumber":2,"parameterNumberName":"U-component_of_WINDS"},"data":[0,0,0,0,0,0,0,0,0,0,0,0,0,0,0,0,0,0,0,0,0,0,0,0,0,0,0,0,0,0,0,0,0,0,0,0,0,0,0,0,0,0,0,0,0,0,0,0,0,0,0,0,0,0,0,0,0,0,-2.1711,-2.1712,0,-2.1766,-2.1767,-2.1767,-2.1673,-2.1669,-2.1666,-2.1663,-2.172,-2.1725,-2.1729,0,0,0,0,0,0,0,0,0,0,0,0,0,-2.1526,-2.153,-2.1711,-2.1712,-2.1713,-2.1766,-2.1767,-2.1767,-2.1673,-2.1669,-2.1665,-2.1662,-2.1719,-2.1724,-2.1729,0,0,0,0,0,0,0,0,0,0,0,0,0,-2.1596,-2.1531,-2.1711,-2.1672,-2.1669,-2.1766,-2.1767,-2.1768,-2.1674,-2.1669,-2.1664,-2.166,-2.1717,-2.1724,-2.173,-2.1868,0,0,-2.1751,-2.1754,0,0,0,0,0,0,0,0,-2.1593,-2.1603,-2.1677,-2.1675,-2.1672,-2.1708,-2.1722,-2.1801,-2.1675,-2.1672,-2.1663,-2.1658,-2.172,-2.1726,-2.1747,-2.1871,-2.1873,-2.1751,-2.1756,-2.1758,-2.176,0,0,0,0,0,0,0,-2.1588,-2.16,-2.1733,-2.1678,-2.1675,-2.1652,-2.1657,-2.1737,-2.1722,-2.1672,-2.1665,-2.1673,-2.1718,-2.1741,-2.1748,-2.1874,-2.1751,-2.1757,-2.1761,-2.1764,-2.2114,-2.2119,0,0,0,0,0,0,-2.1588,-2.1597,-2.1731,-2.1735,-2.162,-2.1659,-2.1665,-2.1701,-2.1721,-2.172,-2.1677,-2.1669,-2.1732,-2.174,-2.1749,-2.1913,-2.1758,-2.1765,-2.1769,-2.2109,-2.2115,-2.2121,0,0,0,0,0,0,-2.1584,-2.1601,-2.1729,-2.1664,-2.1679,-2.1668,-2.1709,-2.1705,-2.1728,-2.1725,-2.1722,-2.1704,-2.1728,-2.174,-2.1839,-2.1914,-2.1768,-2.1774,-2.2103,-2.2111,-2.2118,-2.2241,0,0,0,0,0,0,-2.1579,-2.16,-2.1652,-2.1666,-2.1682,-2.1818,-2.1714,-2.1709,-2.1739,-2.1729,-2.1749,-2.1748,-2.1725,-2.183,-2.1846,-2.192,-2.1779,-2.2096,-2.2106,-2.2116,-2.223,-2.2252,-2.2271,0,0,0,0,0,-2.1573,-2.1684,-2.1655,-2.1672,-2.1747,-2.1823,-2.1832,-2.1804,-2.1746,-2.1798,-2.1797,-2.1747,-2.1902,-2.1841,-2.1858,-2.1936,-2.2091,-2.2103,-2.2115,-2.2221,-2.2248,-2.227,0,0,0,0,0,0,-2.1679,-2.1685,-2.1653,-2.1772,-2.1798,-2.1807,-2.1872,-2.1833,-2.1876,-2.1864,-2.1827,-2.1832,-2.194,-2.1947,-2.1878,-2.207,-2.1987,-2.2003,-2.2062,-2.2087,-2.2107,-2.2104,-2.1785,0,0,0,0,0,-2.1717,-2.1777,-2.1779,-2.1884,-2.1898,-2.1883,-2.1915,-2.1891,-2.1916,-2.1927,-2.1932,-2.1959,-2.2013,-2.205,-2.21,-2.223,-2.2234,-2.2292,-2.2312,-2.2329,-2.2344,-2.2414,-2.2441,-2.216,-2.216,-2.2159,0,0,-2.1795,-2.1805,-2.1846,-2.1906,-2.1923,-2.1987,-2.1893,-2.1965,-2.2012,-2.1937,-2.2032,-2.2037,-2.2064,-2.218,-2.2231,-2.219,-2.2422,-2.2344,-2.2357,-2.2363,-2.2429,-2.2456,-2.2479,-2.2168,-2.2166,-2.2165,0,0,-2.197,-2.1983,-2.2073,-2.2092,-2.2118,-2.2108,-2.2129,-2.2144,-2.2145,-2.2239,-2.2185,-2.2241,-2.2335,-2.2357,-2.2381,-2.2565,-2.2521,-2.2582,-2.2689,-2.2758,-2.278,-2.2799,-2.2866,-2.2891,-2.2596,-2.2597,-2.2597,0,-2.2063,-2.2157,-2.2124,-2.22,-2.2228,-2.2163,-2.2254,-2.2274,-2.2316,-2.2338,-2.229,-2.2408,-2.2422,-2.2542,-2.2587,-2.2608,-2.2632,-2.258,-2.2779,-2.2798,-2.2816,-2.288,-2.2905,-2.2604,-2.2603,-2.2602,-2.2602,0,-2.2272,-2.2338,-2.2407,-2.245,-2.2486,-2.2569,-2.2548,-2.2589,-2.2562,-2.2556,-2.2653,-2.2667,-2.272,-2.2746,-2.272,-2.2864,-2.2837,-2.2785,-2.2701,-2.2851,-2.291,-2.2934,-2.2614,-2.2612,-2.261,-2.2608,0,0,-2.2517,-2.254,-2.2566,-2.2585,-2.2609,-2.266,-2.274,-2.2791,-2.2828,-2.2859,-2.2926,-2.3008,-2.296,-2.2987,-2.2963,-2.3023,-2.317,-2.2964,-2.2964,-2.3003,-2.333,-2.3371,-2.34,-2.314,-2.3145,-2.3148,-2.3329,0,-2.2692,-2.2831,-2.2803,-2.2939,-2.3,-2.2939,-2.3009,-2.3032,-2.3029,-2.3081,-2.3077,-2.3136,-2.3068,-2.3084,-2.3141,-2.314,-2.3235,-2.3126,-2.3204,-2.3207,-2.3201,-2.343,-2.3473,-2.3643,-2.3351,-2.3355,-2.3358,0,-2.2915,-2.2955,-2.3098,-2.3113,-2.3138,-2.3202,-2.3247,-2.3296,-2.3322,-2.3315,-2.3346,-2.331,-2.339,-2.3304,-2.3415,-2.3341,-2.3371,-2.3375,-2.3381,-2.3389,-2.3293,-2.3446,-2.3696,-2.3722,-2.3394,-2.3391,-2.3389,0,-2.3082,-2.3171,-2.3268,-2.3286,-2.3306,-2.3352,-2.3363,-2.3383,-2.3416,-2.3455,-2.3476,-2.3524,-2.3551,-2.359,-2.3568,-2.3507,-2.3684,-2.3595,-2.3682,-2.3683,-2.3723,-2.3721,-2.3984,-2.374,-2.3739,-2.3739,-2.3738,0,-2.3282,-2.3372,-2.3343,-2.3403,-2.3502,-2.3469,-2.3568,-2.3571,-2.359,-2.365,-2.3599,-2.3656,-2.3624,-2.3679,-2.3662,-2.3757,-2.3769,-2.3767,-2.3762,-2.3773,-2.3774,-2.3793,-2.3782,-2.3745,-2.3744,-2.3743,-2.3741,0,-2.3485,-2.3469,-2.3571,-2.3582,-2.3587,-2.366,-2.3669,-2.3726,-2.3718,-2.3795,-2.3811,-2.38,-2.3862,-2.3844,-2.3911,-2.3899,-2.4021,-2.3999,-2.4013,-2.4008,-2.4096,-2.4089,-2.4382,-2.4419,-2.415,-2.4152,-2.4154,0,-2.3615,-2.3683,-2.3701,-2.3737,-2.3752,-2.3811,-2.3844,-2.3814,-2.3851,-2.3885,-2.3938,-2.3995,-2.404,-2.4142,-2.414,-2.4191,-2.4172,-2.4271,-2.418,-2.4189,-2.4176,-2.4173,-2.418,-2.429,-2.4293,-2.4296,-2.4298,0,-2.3847,-2.3836,-2.3886,-2.3934,-2.3975,-2.4011,-2.4042,-2.4075,-2.4047,-2.4091,-2.4154,-2.4189,-2.4257,-2.4316,-2.4362,-2.4373,-2.4332,-2.4326,-2.435,-2.4362,-2.4368,-2.4368,-2.4064,-2.432,-2.4318,-2.4316,-2.4315,-2.4314,-2.4018,-2.4076,-2.4099,-2.4156,-2.4177,-2.4207,-2.4261,-2.4261,-2.4312,-2.4366,-2.4345,-2.4418,-2.4441,-2.45,-2.4517,-2.4574,-2.4536,-2.4569,-2.4578,-2.4587,-2.4599,-2.4357,-2.4582,-2.4581,-2.4581,-2.458,-2.4579,0,-2.4249,-2.4261,-2.4314,-2.436,-2.4405,-2.4361,-2.4394,-2.4435,-2.45,-2.4525,-2.457,-2.4643,-2.4699,-2.4702,-2.4755,-2.48,-2.4782,-2.4815,-2.4812,-2.4816,-2.4629,-2.4604,-2.4828,-2.4828,-2.4828,-2.4828,-2.4828,-2.4828,-2.4375,-2.4471,-2.4463,-2.4569,-2.4579,-2.465,-2.4673,-2.4701,-2.4721,-2.4805,-2.4852,-2.4853,-2.487,-2.4923,-2.4973,-2.4972,-2.4995,-2.5036,-2.5028,-2.4853,-2.4829,-2.4805,-2.4782,-2.504,-2.5041,-2.521,-2.5212,-2.5213]},{"header":{"parameterUnit":"m.s-1","parameterCategory":1,"la1":30.2991,"la2":30.254,"lo1":-89.0895,"lo2":-89.0444,"dy":0.0017,"dx":0.0017,"nx":28,"ny":28,"refTime":"2024-10-21T21:00:00:Z","depth":0,"parameterNumber":3,"parameterNumberName":"V-component_of_WINDS"},"data":[0,0,0,0,0,0,0,0,0,0,0,0,0,0,0,0,0,0,0,0,0,0,0,0,0,0,0,0,0,0,0,0,0,0,0,0,0,0,0,0,0,0,0,0,0,0,0,0,0,0,0,0,0,0,0,0,0,0,-2.153,-2.1531,0,-2.1557,-2.1557,-2.1557,-2.1561,-2.1561,-2.1561,-2.1561,-2.1585,-2.1586,-2.1587,0,0,0,0,0,0,0,0,0,0,0,0,0,-2.148,-2.1481,-2.153,-2.1531,-2.1531,-2.1557,-2.1557,-2.1557,-2.1561,-2.1561,-2.1561,-2.156,-2.1585,-2.1586,-2.1587,0,0,0,0,0,0,0,0,0,0,0,0,0,-2.1503,-2.1481,-2.153,-2.1536,-2.1537,-2.1557,-2.1557,-2.1558,-2.1561,-2.1561,-2.1561,-2.156,-2.1585,-2.1586,-2.1587,-2.1602,0,0,-2.1591,-2.1592,0,0,0,0,0,0,0,0,-2.1502,-2.1505,-2.1535,-2.1536,-2.1537,-2.1555,-2.1548,-2.1572,-2.1561,-2.1552,-2.1561,-2.156,-2.1575,-2.1577,-2.1583,-2.1603,-2.1604,-2.1591,-2.1592,-2.1593,-2.1593,0,0,0,0,0,0,0,-2.15,-2.1504,-2.1541,-2.1535,-2.1536,-2.1536,-2.1539,-2.1553,-2.1565,-2.1553,-2.1553,-2.1556,-2.1576,-2.1582,-2.1584,-2.1605,-2.1591,-2.1592,-2.1593,-2.1594,-2.1637,-2.1638,0,0,0,0,0,0,-2.1498,-2.1503,-2.154,-2.1541,-2.1518,-2.1537,-2.1541,-2.155,-2.1565,-2.1567,-2.1557,-2.1556,-2.158,-2.1582,-2.1585,-2.1602,-2.1593,-2.1594,-2.1595,-2.1637,-2.1637,-2.1638,0,0,0,0,0,0,-2.1497,-2.1501,-2.1539,-2.1522,-2.1527,-2.1539,-2.1549,-2.155,-2.1556,-2.1568,-2.157,-2.1561,-2.158,-2.1583,-2.1598,-2.1603,-2.1594,-2.1596,-2.1636,-2.1637,-2.1637,-2.1639,0,0,0,0,0,0,-2.1496,-2.1501,-2.1508,-2.1522,-2.1528,-2.1552,-2.1549,-2.1551,-2.1559,-2.1559,-2.1572,-2.1574,-2.158,-2.1596,-2.1599,-2.1605,-2.1597,-2.1636,-2.1637,-2.1637,-2.1638,-2.1639,-2.164,0,0,0,0,0,-2.1494,-2.1507,-2.1508,-2.1513,-2.1537,-2.1553,-2.1556,-2.1562,-2.156,-2.1566,-2.1573,-2.1574,-2.1602,-2.1597,-2.1601,-2.1607,-2.1636,-2.1636,-2.1637,-2.1638,-2.1639,-2.164,0,0,0,0,0,0,-2.1492,-2.1509,-2.1511,-2.1529,-2.1539,-2.1553,-2.1562,-2.1564,-2.1575,-2.1574,-2.1581,-2.1584,-2.1598,-2.1604,-2.1598,-2.1622,-2.1618,-2.162,-2.1618,-2.1619,-2.162,-2.1618,-2.1598,0,0,0,0,0,-2.1494,-2.1506,-2.152,-2.1535,-2.154,-2.155,-2.1557,-2.1561,-2.1572,-2.1576,-2.1585,-2.1594,-2.1605,-2.1612,-2.1623,-2.1639,-2.1641,-2.1645,-2.1646,-2.1647,-2.1648,-2.1655,-2.1657,-2.164,-2.164,-2.164,0,0,-2.1498,-2.1508,-2.1516,-2.1535,-2.1544,-2.1555,-2.1554,-2.1566,-2.1575,-2.1578,-2.1593,-2.1599,-2.161,-2.1625,-2.1632,-2.1631,-2.1653,-2.1648,-2.1648,-2.1649,-2.1656,-2.1658,-2.1659,-2.1641,-2.1641,-2.1641,0,0,-2.151,-2.152,-2.1533,-2.1542,-2.1555,-2.1561,-2.1564,-2.1578,-2.1582,-2.1597,-2.1599,-2.1609,-2.1628,-2.1636,-2.1642,-2.1656,-2.1657,-2.1659,-2.1664,-2.1671,-2.1673,-2.1674,-2.1678,-2.1679,-2.1661,-2.1661,-2.1661,0,-2.1513,-2.1532,-2.1539,-2.1552,-2.1559,-2.1563,-2.1576,-2.1583,-2.1599,-2.1604,-2.1602,-2.1625,-2.1633,-2.1649,-2.1653,-2.1658,-2.1661,-2.1658,-2.1672,-2.1673,-2.1674,-2.1678,-2.168,-2.1661,-2.1661,-2.1661,-2.1661,0,-2.1534,-2.1547,-2.1556,-2.1571,-2.158,-2.1592,-2.16,-2.1608,-2.1611,-2.1617,-2.1631,-2.164,-2.1652,-2.1657,-2.166,-2.1673,-2.1671,-2.1671,-2.1667,-2.1676,-2.168,-2.1682,-2.1661,-2.1661,-2.1661,-2.1661,0,0,-2.1547,-2.1566,-2.1569,-2.1575,-2.159,-2.1599,-2.1611,-2.1624,-2.1629,-2.164,-2.1649,-2.1665,-2.1664,-2.1671,-2.1674,-2.1681,-2.169,-2.1679,-2.168,-2.168,-2.1704,-2.1704,-2.1706,-2.1691,-2.1691,-2.1692,-2.1703,0,-2.1561,-2.1583,-2.1589,-2.1607,-2.1619,-2.1622,-2.1632,-2.1641,-2.1647,-2.1656,-2.1662,-2.1672,-2.1671,-2.1675,-2.1682,-2.1688,-2.1695,-2.1687,-2.1698,-2.1699,-2.1695,-2.1708,-2.1709,-2.1719,-2.1705,-2.1705,-2.1705,0,-2.158,-2.1591,-2.1611,-2.1622,-2.1627,-2.1636,-2.1648,-2.1657,-2.1667,-2.167,-2.1678,-2.1681,-2.1692,-2.1688,-2.1702,-2.1697,-2.1702,-2.1705,-2.1706,-2.1707,-2.1702,-2.1709,-2.1722,-2.1724,-2.1708,-2.1707,-2.1707,0,-2.1586,-2.1606,-2.162,-2.1626,-2.164,-2.1646,-2.1652,-2.1662,-2.1668,-2.1678,-2.1682,-2.1693,-2.1698,-2.1706,-2.1711,-2.1708,-2.1725,-2.1721,-2.1727,-2.1727,-2.173,-2.173,-2.1744,-2.1734,-2.1734,-2.1734,-2.1734,0,-2.1601,-2.1612,-2.1623,-2.1631,-2.1644,-2.165,-2.1662,-2.1668,-2.1676,-2.1685,-2.1688,-2.1696,-2.1703,-2.1711,-2.1715,-2.1726,-2.1729,-2.1731,-2.1732,-2.1731,-2.173,-2.1734,-2.1733,-2.1735,-2.1734,-2.1734,-2.1734,0,-2.161,-2.1618,-2.1633,-2.1645,-2.1648,-2.1657,-2.1667,-2.1674,-2.168,-2.1691,-2.1694,-2.1702,-2.1712,-2.1718,-2.173,-2.1733,-2.1745,-2.1746,-2.1742,-2.1742,-2.1747,-2.1746,-2.1764,-2.1766,-2.1755,-2.1755,-2.1755,0,-2.1619,-2.1627,-2.1641,-2.1647,-2.1653,-2.1664,-2.167,-2.1677,-2.1683,-2.1695,-2.1701,-2.1711,-2.172,-2.1735,-2.1742,-2.1751,-2.1752,-2.1757,-2.1753,-2.1751,-2.1751,-2.175,-2.1751,-2.1758,-2.1758,-2.1758,-2.1758,0,-2.1632,-2.1636,-2.1646,-2.1657,-2.1665,-2.1674,-2.1683,-2.1688,-2.1695,-2.1702,-2.1713,-2.172,-2.1733,-2.1742,-2.1752,-2.1757,-2.1758,-2.1759,-2.1761,-2.1759,-2.1756,-2.1757,-2.1743,-2.1759,-2.1759,-2.1759,-2.1759,-2.1759,-2.1641,-2.1649,-2.1659,-2.167,-2.1677,-2.1685,-2.1692,-2.1699,-2.1708,-2.1719,-2.1722,-2.1733,-2.1741,-2.1755,-2.176,-2.1768,-2.1767,-2.1769,-2.177,-2.177,-2.177,-2.1756,-2.1769,-2.1769,-2.1769,-2.1769,-2.1769,0,-2.1654,-2.1661,-2.1671,-2.1683,-2.1691,-2.1693,-2.1702,-2.1708,-2.1718,-2.1726,-2.1735,-2.1746,-2.1755,-2.1762,-2.1772,-2.1776,-2.1777,-2.1779,-2.1778,-2.1779,-2.1771,-2.1768,-2.1778,-2.1778,-2.1778,-2.1778,-2.1778,-2.1778,-2.1662,-2.1675,-2.1679,-2.1695,-2.1701,-2.1712,-2.1717,-2.1724,-2.173,-2.1743,-2.1751,-2.1756,-2.1763,-2.1773,-2.1781,-2.1783,-2.1786,-2.1787,-2.1789,-2.1781,-2.178,-2.1779,-2.1776,-2.1788,-2.1788,-2.1796,-2.1796,-2.1796]}]]